This is the latest recevied weather packets stored in our database for station/object WR9A-13. If no packets are shown the sender has not sent any weather packets the latest 10 day(s).
| Time | Temp. | Humidity | Pressure | Rain* | Wind** | Luminosity | Snow |
|---|---|---|---|---|---|---|---|
| 1777651533 | 10° C | 68% | 1017 hPa | 0.25 mm | - | - | - |
| 1777651214 | 9.44° C | 67% | 1017 hPa | 0.25 mm | - | - | - |
| 1777650931 | 9.44° C | 67% | 1016.9 hPa | 0.25 mm | - | - | - |
| 1777650619 | 9.44° C | 68% | 1016.8 hPa | 0.25 mm | - | - | - |
| 1777650316 | 9.44° C | 66% | 1016.9 hPa | 0 mm | - | - | - |
| 1777650024 | 9.44° C | 68% | 1016.7 hPa | 0 mm | - | - | - |
| 1777649720 | 9.44° C | 70% | 1016.7 hPa | 0 mm | - | - | - |
| 1777649438 | 8.89° C | 70% | 1016.6 hPa | 0 mm | - | - | - |
| 1777649127 | 8.89° C | 71% | 1016.7 hPa | 0 mm | - | - | - |
| 1777648816 | 8.89° C | 70% | 1016.6 hPa | 0 mm | - | - | - |
| 1777648531 | 8.89° C | 70% | 1016.6 hPa | 0 mm | - | - | - |
| 1777648219 | 8.89° C | 72% | 1016.6 hPa | 0 mm | - | - | - |
| 1777647916 | 8.89° C | 72% | 1016.6 hPa | 0 mm | - | - | - |
| 1777647627 | 8.33° C | 76% | 1016.4 hPa | 0 mm | - | - | - |
| 1777647315 | 7.78° C | 75% | 1016.5 hPa | 0 mm | - | - | - |
| 1777647014 | 7.78° C | 77% | 1016.6 hPa | 0 mm | - | - | - |
| 1777646721 | 7.22° C | 78% | 1016.5 hPa | 0 mm | - | - | - |
| 1777646418 | 7.22° C | 80% | 1016.7 hPa | 0 mm | - | - | - |
| 1777646126 | 6.67° C | 81% | 1016.6 hPa | 0 mm | - | - | - |
| 1777645823 | 6.67° C | 81% | 1016.7 hPa | 0 mm | - | - | - |
| 1777645531 | 6.67° C | 81% | 1016.6 hPa | 0 mm | - | - | - |
| 1777645228 | 6.67° C | 81% | 1016.5 hPa | 0 mm | - | - | - |
| 1777644916 | 6.67° C | 82% | 1016.4 hPa | 0 mm | - | - | - |
| 1777644634 | 6.67° C | 82% | 1016.4 hPa | 0 mm | - | - | - |
| 1777644322 | 6.67° C | 82% | 1016.5 hPa | 0 mm | - | - | - |
* Rain latest hour (hover to see other rain measurements)
** Current wind speed in m/s (hover to see current wind gust speed)